GAOFEN 3

导读

高分三号(GAOFEN 3)是中国于2016年8月9日发射的首颗1米分辨率C频段多极化合成孔径雷达遥感卫星,属于高分专项工程的重要组成部分。它具备全天候、全天时对地观测能力,可广泛服务于海洋监测、防灾减灾、国土测绘、资源调查等领域,显著提升了我国对地遥感观测水平,支撑多个行业领域的应用需求,截至2025年已完成全球超36000万平方公里有效覆盖,累计分发超过350万景数据,是我国高分辨率对地观测系统的关键卫星。

基本信息
目录编号:
41727
目录名称:
GAOFEN 3
国际标识:
2016-049A
轨道中心:
EARTH
卫星名称:
GAOFEN 3
卫星全名:
--
卫星状态:
在轨 (已飞行3639 天)
发射日期:
2016-08-09 UTC
国别 :
中国 (CN)
星等 :
--
轨道信息
数据来源 国际轨道数据 AOE轨道数据
星历时间 2026-07-27T22:24:59+0800
7小时前
查看轨道信息
2026-07-26T17:00:00+0800
1天前
查看轨道信息
半长轴 7129.31km 7129.312km
偏心率 0.0001746 0.0001756
轨道倾角 98.403° 98.403°
近地点辐角 77.812° 81.525°
升交点赤经 215.778° 214.574°
平近点角 282.326° 38.600°
近地点 749.928km 749.923km
远地点 752.418km 752.427km
周期 99.846分钟 99.846分钟
每日圈数 14.422201 14.422194
详细信息
使用方式:
暂无
2D轨道图
3D轨道图
轨道高度分析图
轨道倾角分析图
轨道综合分析图
查看轨道综合分析图